Weather History for KAIB - April, 2014

Change the Weather History Date:

Friday, April 18, 2014

  Actual Average Record
Temperature  
Mean Temperature 56 °F -  
Max Temperature 73 °F - - ()
Min Temperature 39 °F - - ()
Degree Days  
Heating Degree Days 9    
Growing Degree Days 6 (Base 50)    
Moisture  
Dew Point 24 °F    
Average Humidity 31    
Maximum Humidity 61    
Minimum Humidity 13    
Precipitation  
Precipitation 0.00 in - - ()
Sea Level Pressure  
Sea Level Pressure 30.08 in    
Wind  
Wind Speed 8 mph (South)    
Max Wind Speed 23 mph    
Max Gust Speed 30 mph    
Visibility 10 miles    
Events      
T = Trace of Precipitation, MM = Missing Value Source: NWS Daily Summary

Daily Weather History Graph

Daily Weather History Graph

Search for Another Location

Airport or City:

Trip Planner

Search our weather history database for the weather conditions in past years. The results will help you decide how hot, cold, wet, or windy it might be!

Date:

Astronomy

Apr. 18, 2014 Rise Set
Actual Time 6:34 AM MDT 7:53 PM MDT
Civil Twilight 6:06 AM MDT 8:21 PM MDT
Nautical Twilight 5:33 AM MDT 8:53 PM MDT
Astronomical Twilight 4:59 AM MDT 9:28 PM MDT
Moon 11:39 PM MDT (4/18) 9:01 AM MDT (4/18)
Length of Visible Light 14h 14m
Length of Day
13h 19m
Waning Gibbous, 86% of the Moon is Illuminated
Apr 18
Waning Gibbous
Apr 22
Last Quarter
Apr 29
New
May 6
First Quarter
May 14
Full

Hourly Weather History & Observations

Time (MDT) Temp. Windchill Dew Point Humidity Pressure Visibility Wind Dir Wind Speed Gust Speed Precip Events Conditions
12:15 AM 48.2 °F - 23.0 °F 37% 30.13 in 10.0 mi East 11.5 mph - N/A   Unknown
12:35 AM 48.2 °F - 23.0 °F 37% 30.13 in 10.0 mi East 9.2 mph - N/A   Unknown
12:55 AM 50.0 °F - 23.0 °F 35% 30.13 in 10.0 mi East 10.4 mph - N/A   Unknown
1:15 AM 50.0 °F - 23.0 °F 35% 30.13 in 10.0 mi East 12.7 mph - N/A   Unknown
1:35 AM 50.0 °F - 23.0 °F 35% 30.13 in 10.0 mi East 10.4 mph - N/A   Unknown
1:55 AM 50.0 °F - 23.0 °F 35% 30.12 in 10.0 mi East 8.1 mph - N/A   Unknown
2:15 AM 44.6 °F 39.7 °F 24.8 °F 46% 30.12 in 10.0 mi East 9.2 mph - N/A   Unknown
2:35 AM 44.6 °F 39.7 °F 24.8 °F 46% 30.12 in 10.0 mi ESE 9.2 mph - N/A   Unknown
2:55 AM 44.6 °F 42.2 °F 24.8 °F 46% 30.11 in 10.0 mi East 4.6 mph - N/A   Unknown
3:15 AM 42.8 °F 41.1 °F 24.8 °F 49% 30.11 in 10.0 mi ESE 3.5 mph - N/A   Unknown
3:35 AM 44.6 °F 41.4 °F 24.8 °F 46% 30.11 in 10.0 mi SSE 5.8 mph - N/A   Unknown
3:55 AM 42.8 °F 40.1 °F 24.8 °F 49% 30.11 in 10.0 mi SE 4.6 mph - N/A   Unknown
4:15 AM 42.8 °F 38.0 °F 24.8 °F 49% 30.11 in 10.0 mi ESE 8.1 mph - N/A   Unknown
4:35 AM 42.8 °F 39.3 °F 24.8 °F 49% 30.11 in 10.0 mi ESE 5.8 mph - N/A   Unknown
4:55 AM 42.8 °F 38.6 °F 26.6 °F 53% 30.11 in 10.0 mi East 6.9 mph - N/A   Unknown
5:15 AM 41.0 °F 35.8 °F 26.6 °F 57% 30.11 in 10.0 mi East 8.1 mph - N/A   Unknown
5:35 AM 41.0 °F 36.4 °F 26.6 °F 57% 30.11 in 10.0 mi East 6.9 mph - N/A   Unknown
5:55 AM 41.0 °F 37.1 °F 26.6 °F 57% 30.11 in 10.0 mi East 5.8 mph - N/A   Unknown
6:15 AM 41.0 °F 38.0 °F 26.6 °F 57% 30.11 in 10.0 mi East 4.6 mph - N/A   Unknown
6:35 AM 39.2 °F - 26.6 °F 61% 30.12 in 10.0 mi Calm Calm - N/A   Unknown
6:55 AM 41.0 °F 39.0 °F 26.6 °F 57% 30.12 in 10.0 mi East 3.5 mph - N/A   Unknown
7:15 AM 39.2 °F 37.0 °F 26.6 °F 61% 30.12 in 10.0 mi ESE 3.5 mph - N/A   Unknown
7:35 AM 41.0 °F - 28.4 °F 61% 30.13 in 10.0 mi Calm Calm - N/A   Unknown
7:55 AM 41.0 °F - 28.4 °F 61% 30.14 in 10.0 mi Calm Calm - N/A   Unknown
8:15 AM 44.6 °F - 28.4 °F 53% 30.14 in 10.0 mi Calm Calm - N/A   Unknown
8:35 AM 48.2 °F - 28.4 °F 46% 30.14 in 10.0 mi Calm Calm - N/A   Unknown
8:55 AM 50.0 °F - 28.4 °F 43% 30.14 in 10.0 mi Calm Calm - N/A   Unknown
9:15 AM 51.8 °F - 28.4 °F 41% 30.14 in 10.0 mi Calm Calm - N/A   Unknown
9:35 AM 53.6 °F - 28.4 °F 38% 30.13 in 10.0 mi Calm Calm - N/A   Unknown
9:55 AM 55.4 °F - 28.4 °F 36% 30.13 in 10.0 mi Calm Calm - N/A   Unknown
10:15 AM 59.0 °F - 28.4 °F 31% 30.12 in 10.0 mi Calm Calm - N/A   Unknown
10:35 AM 62.6 °F - 30.2 °F 30% 30.11 in 10.0 mi Calm Calm - N/A   Unknown
10:55 AM 64.4 °F - 26.6 °F 24% 30.11 in 10.0 mi Calm Calm - N/A   Unknown
11:15 AM 66.2 °F - 28.4 °F 24% 30.10 in 10.0 mi Calm Calm - N/A   Unknown
11:35 AM 69.8 °F - 24.8 °F 18% 30.10 in 10.0 mi WSW 8.1 mph - N/A   Unknown
11:55 AM 71.6 °F - 21.2 °F 15% 30.09 in 10.0 mi SSW 13.8 mph 23.0 mph N/A   Unknown
12:15 PM 73.4 °F - 21.2 °F 14% 30.08 in 10.0 mi South 16.1 mph 20.7 mph N/A   Unknown
12:35 PM 73.4 °F - 21.2 °F 14% 30.08 in 10.0 mi SW 12.7 mph 19.6 mph N/A   Unknown
12:55 PM 73.4 °F - 21.2 °F 14% 30.07 in 10.0 mi SW 12.7 mph 25.3 mph N/A   Unknown
1:15 PM 71.6 °F - 21.2 °F 15% 30.06 in 7.0 mi WSW 13.8 mph 25.3 mph N/A   Unknown
1:35 PM 73.4 °F - 21.2 °F 14% 30.05 in 7.0 mi SW 19.6 mph 27.6 mph N/A   Unknown
1:55 PM 73.4 °F - 19.4 °F 13% 30.05 in 10.0 mi SW 23.0 mph 29.9 mph N/A   Unknown
2:15 PM 73.4 °F - 19.4 °F 13% 30.06 in 10.0 mi SW 17.3 mph 26.5 mph N/A   Unknown
2:35 PM 71.6 °F - 21.2 °F 15% 30.06 in 10.0 mi WSW 15.0 mph 25.3 mph N/A   Unknown
2:55 PM 71.6 °F - 19.4 °F 14% 30.05 in 10.0 mi WSW 11.5 mph 23.0 mph N/A   Unknown
3:15 PM 69.8 °F - 19.4 °F 15% 30.04 in 10.0 mi WSW 15.0 mph 23.0 mph N/A   Unknown
3:35 PM 69.8 °F - 19.4 °F 15% 30.04 in 10.0 mi West 16.1 mph 24.2 mph N/A   Unknown
3:55 PM 69.8 °F - 19.4 °F 15% 30.03 in 10.0 mi West 13.8 mph - N/A   Unknown
4:15 PM 69.8 °F - 19.4 °F 15% 30.02 in 10.0 mi SW 8.1 mph 16.1 mph N/A   Unknown
4:35 PM 71.6 °F - 19.4 °F 14% 30.01 in 10.0 mi SSW 12.7 mph 18.4 mph N/A   Unknown
4:55 PM 71.6 °F - 19.4 °F 14% 30.00 in 10.0 mi SW 15.0 mph 19.6 mph N/A   Unknown
5:15 PM 73.4 °F - 19.4 °F 13% 30.00 in 10.0 mi SW 12.7 mph 20.7 mph N/A   Unknown
5:35 PM 71.6 °F - 19.4 °F 14% 29.99 in 10.0 mi WSW 15.0 mph 23.0 mph N/A   Unknown
5:55 PM 71.6 °F - 19.4 °F 14% 29.99 in 10.0 mi WSW 11.5 mph - N/A   Unknown
6:15 PM 71.6 °F - 21.2 °F 15% 30.00 in 10.0 mi SW 11.5 mph 17.3 mph N/A   Unknown
6:35 PM 71.6 °F - 21.2 °F 15% 30.00 in 10.0 mi WSW 15.0 mph 20.7 mph N/A   Unknown
6:55 PM 69.8 °F - 21.2 °F 16% 30.00 in 10.0 mi SSW 11.5 mph 23.0 mph N/A   Unknown
7:15 PM 68.0 °F - 21.2 °F 17% 30.00 in 10.0 mi SSW 8.1 mph 19.6 mph N/A   Unknown
7:35 PM 68.0 °F - 21.2 °F 17% 30.00 in 10.0 mi SSW 11.5 mph - N/A   Unknown
7:55 PM 66.2 °F - 21.2 °F 18% 30.01 in 10.0 mi SSW 12.7 mph - N/A   Unknown
8:15 PM 64.4 °F - 23.0 °F 21% 30.02 in 10.0 mi SW 4.6 mph - N/A   Unknown
8:35 PM 62.6 °F - 23.0 °F 22% 30.03 in 10.0 mi WSW 6.9 mph - N/A   Unknown
8:55 PM 62.6 °F - 23.0 °F 22% 30.03 in 10.0 mi South 3.5 mph - N/A   Unknown
9:15 PM 62.6 °F - 23.0 °F 22% 30.04 in 10.0 mi SSE 4.6 mph - N/A   Unknown
9:35 PM 60.8 °F - 23.0 °F 23% 30.05 in 10.0 mi SW 5.8 mph - N/A   Unknown
9:55 PM 60.8 °F - 23.0 °F 23% 30.07 in 10.0 mi SSW 9.2 mph - N/A   Unknown
10:15 PM 59.0 °F - 24.8 °F 27% 30.08 in 10.0 mi SSW 10.4 mph - N/A   Unknown
10:35 PM 59.0 °F - 24.8 °F 27% 30.09 in 10.0 mi SSW 15.0 mph 18.4 mph N/A   Unknown
10:55 PM 59.0 °F - 26.6 °F 29% 30.10 in 10.0 mi SSW 9.2 mph - N/A   Unknown
11:15 PM 59.0 °F - 26.6 °F 29% 30.10 in 10.0 mi SSW 4.6 mph - N/A   Unknown
11:35 PM 57.2 °F - 28.4 °F 33% 30.11 in 10.0 mi Calm Calm - N/A   Unknown
11:55 PM 55.4 °F - 28.4 °F 36% 30.11 in 10.0 mi Calm Calm - N/A   Unknown